Regional Weather Roundup
Issued by NWS

Home | Current Version | Previous Version | Text Only | Print | Product List | Glossary On
Versions: 1 2 3 4 5 6 7 8 9 10 11 12 13 14 15 16 17 18 19 20 21 22 23 24 25 26 27 28 29 30 31 32 33 34 35 36 37 38 39 40 41 42 43 44 45 46 47 48 49 50
000
ASUS43 KLSX 010059
RWRMO

WEATHER SUMMARY FOR MISSOURI
NATIONAL WEATHER SERVICE SPRINGFIELD MO
700 PM CST SAT JAN 31 2015

NOTE: "FAIR" INDICATES FEW OR NO CLOUDS BELOW 12,000 FEET WITH NO
       SIGNIFICANT WEATHER AND/OR OBSTRUCTIONS TO VISIBILITY.
       CURRENT SKY AND/OR WEATHER CONDITIONS ARE NOT AVAILABLE FOR
       CHILLICOTHE AND FARMINGTON.

MOZ001>031-035>038-043-044-053-054-010200-
...NORTHERN AND WESTERN MISSOURI...

CITY           SKY/WX    TMP DP  RH WIND       PRES   REMARKS
KANSAS CTY INT LGTSLEET  34  34 100 SE9       29.98F FOG     WCI  27
KANSAS C DTWN  LGT RAIN  37  35  92 SE6       29.99F
LEE`S SUMMIT   LGT RAIN  35  33  92 E6        29.99F FOG
ST JOSEPH      LGT SNOW  33  32  96 SE7       29.99F FOG     WCI  27
CHILLICOTHE      N/A     36  33  89 SE8       30.05F WCI  30
KIRKSVILLE     SNOW      33  33 100 SE9       30.08S VSB 1/2 WCI  25

$$
MOZ066>068-077>081-088>096-101>105-010200-
...SOUTHWEST MISSOURI...

CITY           SKY/WX    TMP DP  RH WIND       PRES   REMARKS
SPRINGFIELD    CLOUDY    43  24  47 SE17G25   30.00F
JOPLIN         LGT RAIN  44  31  60 SE12      29.96F

$$
MOZ032>034-039>042-045>050-055>058-069>072-010200-
...CENTRAL MISSOURI...

CITY           SKY/WX    TMP DP  RH WIND       PRES   REMARKS
COLUMBIA       CLOUDY    36  35  96 SE7       30.07S
JEFFERSON CITY CLOUDY    37  36  96 CALM      30.09F
ROLLA          CLOUDY    39  23  52 SE13      30.06F
SEDALIA        CLOUDY    38  34  85 SE14      30.03F WCI  30
OSAGE BEACH    CLOUDY    39  27  60 E5        30.05F

$$
MOZ051-052-059>065-010200-
...EAST CENTRAL MISSOURI...

CITY           SKY/WX    TMP DP  RH WIND       PRES   REMARKS
ST LOUIS INTL  LGT RAIN  42  30  62 E6        30.16F
SPIRIT OF STL  CLOUDY    42  27  55 E10       30.14F
ST CHARLES     CLOUDY    38  32  79 CALM      30.16F

$$
MOZ072>076-082>087-097>100-106>115-010200-
...SOUTH CENTRAL AND SOUTHEAST MISSOURI...

CITY           SKY/WX    TMP DP  RH WIND       PRES   REMARKS
CAPE GIRARDEAU CLOUDY    40  28  62 E10       30.17F
FARMINGTON     CLOUDY    39  21  48 S6        30.18S
POPLAR BLUFF   CLOUDY    40  30  67 E5        30.17F
WEST PLAINS    MOCLDY    41  21  44 SE8       30.11S

$$



USA.gov is the U.S. government's official web portal to all federal, state and local government web resources and services.